• In Czech Republic
  • List of Countries
  • For 7 days
  • Water Temperature
  • Satellite Maps
  • Weather Map
  • Weather Widgets
  • user-avatar
    Login

    Hourly Weather Sharan

    Today, 23 October, Tuesday

    Time Temperature Precipitation Wind Pressure Humidity
    00:00 +9°C° 0 mm 1 mps 587 mmHg 27%
    01:00 +8°C° 0 mm 1 mps 586 mmHg 28%
    02:00 +8°C° 0 mm 1 mps 586 mmHg 29%
    03:00 +8°C° 0 mm 1 mps 586 mmHg 30%
    04:00 +7°C° 0 mm 1 mps 586 mmHg 29%
    05:00 +6°C° 0 mm 2 mps 586 mmHg 29%
    06:00 +7°C° 0 mm 2 mps 586 mmHg 27%
    07:00 +8°C° 0 mm 2 mps 587 mmHg 24%
    08:00 +9°C° 0 mm 2 mps 588 mmHg 22%
    09:00 +10°C° 0 mm 2 mps 588 mmHg 20%
    10:00 +13°C° 0 mm 1 mps 589 mmHg 18%
    11:00 +14°C° 0 mm 1 mps 590 mmHg 16%
    12:00 +15°C° 0 mm 1 mps 589 mmHg 14%
    13:00 +16°C° 0 mm 2 mps 589 mmHg 13%
    14:00 +16°C° 0 mm 2 mps 589 mmHg 12%
    15:00 +16°C° 0 mm 2 mps 589 mmHg 13%
    16:00 +16°C° 0 mm 2 mps 589 mmHg 13%
    17:00 +16°C° 0 mm 2 mps 589 mmHg 13%
    18:00 +14°C° 0 mm 2 mps 589 mmHg 15%
    19:00 +13°C° 0 mm 1 mps 588 mmHg 17%
    20:00 +12°C° 0 mm 1 mps 588 mmHg 20%
    21:00 +11°C° 0 mm 1 mps 588 mmHg 22%
    22:00 +11°C° 0 mm 1 mps 588 mmHg 24%
    23:00 +10°C° 0 mm 1 mps 588 mmHg 26%

    Tomorrow, 24 October, Wednesday

    Time Temperature Precipitation Wind Pressure Humidity
    00:00 +10°C° 0 mm 1 mps 587 mmHg 27%
    01:00 +9°C° 0 mm 1 mps 587 mmHg 28%
    02:00 +9°C° 0 mm 1 mps 587 mmHg 30%
    03:00 +8°C° 0 mm 1 mps 586 mmHg 31%
    04:00 +8°C° 0 mm 1 mps 586 mmHg 32%
    05:00 +7°C° 0 mm 1 mps 586 mmHg 33%
    06:00 +8°C° 0 mm 1 mps 587 mmHg 31%
    07:00 +9°C° 0 mm 1 mps 587 mmHg 28%
    08:00 +11°C° 0 mm 1 mps 588 mmHg 26%
    09:00 +12°C° 0 mm 1 mps 589 mmHg 25%
    10:00 +13°C° 0 mm 1 mps 589 mmHg 24%
    11:00 +15°C° 0 mm 2 mps 590 mmHg 23%
    12:00 +15°C° 0 mm 2 mps 590 mmHg 21%
    13:00 +16°C° 0 mm 3 mps 589 mmHg 20%
    14:00 +17°C° 0 mm 3 mps 589 mmHg 19%
    15:00 +17°C° 0 mm 3 mps 589 mmHg 19%
    16:00 +17°C° 0 mm 3 mps 589 mmHg 20%
    17:00 +17°C° 0 mm 3 mps 589 mmHg 21%
    18:00 +16°C° 0 mm 2 mps 589 mmHg 24%
    19:00 +15°C° 0 mm 2 mps 589 mmHg 26%
    20:00 +14°C° 0 mm 2 mps 589 mmHg 29%
    21:00 +13°C° 0 mm 2 mps 589 mmHg 32%
    22:00 +12°C° 0 mm 2 mps 589 mmHg 34%
    23:00 +10°C° 0 mm 2 mps 589 mmHg 37%

    Day after tomorrow, 25 October, Thursday

    Time Temperature Precipitation Wind Pressure Humidity
    00:00 +10°C° 0 mm 2 mps 588 mmHg 38%
    01:00 +9°C° 0 mm 2 mps 588 mmHg 40%
    02:00 +9°C° 0 mm 2 mps 588 mmHg 41%
    03:00 +9°C° 0 mm 1 mps 588 mmHg 43%
    04:00 +9°C° 0 mm 1 mps 587 mmHg 44%
    05:00 +8°C° 0 mm 1 mps 587 mmHg 45%
    06:00 +9°C° 0 mm 1 mps 588 mmHg 42%
    07:00 +10°C° 0 mm 1 mps 589 mmHg 40%
    08:00 +11°C° 0 mm 1 mps 589 mmHg 37%
    09:00 +12°C° 0 mm 1 mps 590 mmHg 34%
    10:00 +13°C° 0 mm 1 mps 590 mmHg 32%
    11:00 +15°C° 0 mm 2 mps 591 mmHg 29%
    12:00 +16°C° 0 mm 3 mps 591 mmHg 27%
    13:00 +17°C° 0 mm 3 mps 591 mmHg 25%
    14:00 +18°C° 0 mm 4 mps 590 mmHg 23%
    15:00 +17°C° 0 mm 4 mps 590 mmHg 23%
    16:00 +17°C° 0 mm 4 mps 590 mmHg 23%
    17:00 +17°C° 0 mm 4 mps 590 mmHg 24%
    18:00 +16°C° 0 mm 3 mps 590 mmHg 27%
    19:00 +14°C° 0 mm 3 mps 590 mmHg 30%
    20:00 +14°C° 0 mm 2 mps 590 mmHg 33%
    21:00 +13°C° 0 mm 2 mps 590 mmHg 35%
    22:00 +12°C° 0 mm 2 mps 590 mmHg 37%
    23:00 +12°C° 0 mm 2 mps 590 mmHg 39%

    26 October, Friday

    Time Temperature Precipitation Wind Pressure Humidity
    00:00 +11°C° 0 mm 1 mps 590 mmHg 41%
    01:00 +10°C° 0 mm 1 mps 590 mmHg 42%
    02:00 +10°C° 0 mm 1 mps 589 mmHg 44%
    03:00 +9°C° 0 mm 1 mps 589 mmHg 46%
    04:00 +9°C° 0 mm 1 mps 589 mmHg 47%
    05:00 +8°C° 0 mm 1 mps 589 mmHg 49%
    06:00 +9°C° 0 mm 1 mps 589 mmHg 46%
    07:00 +10°C° 0 mm 1 mps 590 mmHg 43%
    08:00 +11°C° 0 mm 1 mps 591 mmHg 40%
    09:00 +13°C° 0 mm 1 mps 592 mmHg 36%
    10:00 +14°C° 0 mm 1 mps 592 mmHg 31%
    11:00 +16°C° 0 mm 1 mps 593 mmHg 27%
    12:00 +17°C° 0 mm 2 mps 593 mmHg 25%
    13:00 +18°C° 0 mm 3 mps 592 mmHg 23%
    14:00 +19°C° 0 mm 3 mps 592 mmHg 22%
    15:00 +19°C° 0 mm 3 mps 592 mmHg 22%
    16:00 +18°C° 0 mm 3 mps 592 mmHg 22%
    17:00 +18°C° 0 mm 3 mps 592 mmHg 23%
    18:00 +17°C° 0 mm 3 mps 591 mmHg 26%
    19:00 +16°C° 0 mm 3 mps 591 mmHg 29%
    20:00 +13°C° 0 mm 3 mps 591 mmHg 32%
    21:00 +14°C° 0 mm 2 mps 591 mmHg 34%
    22:00 +13°C° 0 mm 2 mps 591 mmHg 36%
    23:00 +12°C° 0 mm 2 mps 591 mmHg 38%

    27 October, Saturday

    Time Temperature Precipitation Wind Pressure Humidity
    00:00 +12°C° 0 mm 2 mps 590 mmHg 40%
    01:00 +11°C° 0 mm 1 mps 590 mmHg 41%
    02:00 +11°C° 0 mm 1 mps 589 mmHg 43%
    03:00 +10°C° 0 mm 1 mps 589 mmHg 43%
    04:00 +10°C° 0 mm 1 mps 589 mmHg 44%
    05:00 +10°C° 0 mm 1 mps 589 mmHg 44%
    06:00 +11°C° 0 mm 1 mps 590 mmHg 41%
    07:00 +12°C° 0 mm 1 mps 591 mmHg 38%
    08:00 +13°C° 0 mm 1 mps 591 mmHg 35%
    09:00 +14°C° 0 mm 1 mps 592 mmHg 31%
    10:00 +16°C° 0 mm 1 mps 593 mmHg 28%
    11:00 +18°C° 0 mm 2 mps 593 mmHg 24%
    12:00 +19°C° 0 mm 2 mps 593 mmHg 22%
    13:00 +20°C° 0 mm 2 mps 593 mmHg 21%
    14:00 +20°C° 0 mm 2 mps 592 mmHg 19%
    15:00 +20°C° 0 mm 2 mps 592 mmHg 20%
    16:00 +20°C° 0 mm 3 mps 592 mmHg 20%
    17:00 +20°C° 0 mm 3 mps 592 mmHg 20%
    18:00 +18°C° 0 mm 2 mps 592 mmHg 24%
    19:00 +17°C° 0 mm 2 mps 592 mmHg 27%
    20:00 +15°C° 0 mm 2 mps 592 mmHg 30%
    21:00 +15°C° 0 mm 2 mps 591 mmHg 33%
    22:00 +14°C° 0 mm 2 mps 591 mmHg 35%
    23:00 +13°C° 0 mm 1 mps 591 mmHg 38%

    28 October, Sunday

    Time Temperature Precipitation Wind Pressure Humidity
    00:00 +13°C° 0 mm 1 mps 590 mmHg 40%
    01:00 +12°C° 0 mm 1 mps 590 mmHg 43%
    02:00 +11°C° 0 mm 1 mps 589 mmHg 45%
    03:00 +11°C° 0 mm 1 mps 589 mmHg 47%
    04:00 +10°C° 0 mm 1 mps 589 mmHg 49%
    05:00 +10°C° 0 mm 1 mps 588 mmHg 51%
    06:00 +11°C° 0 mm 1 mps 589 mmHg 47%
    07:00 +12°C° 0 mm 1 mps 590 mmHg 44%
    08:00 +13°C° 0 mm 1 mps 591 mmHg 41%
    09:00 +15°C° 0 mm 1 mps 591 mmHg 36%
    10:00 +16°C° 0 mm 1 mps 592 mmHg 31%
    11:00 +19°C° 0 mm 1 mps 592 mmHg 26%
    12:00 +19°C° 0 mm 2 mps 592 mmHg 25%
    13:00 +20°C° 0 mm 2 mps 592 mmHg 23%
    14:00 +20°C° 0 mm 3 mps 591 mmHg 21%
    15:00 +20°C° 0 mm 3 mps 591 mmHg 21%
    16:00 +20°C° 0 mm 3 mps 591 mmHg 22%
    17:00 +20°C° 0 mm 3 mps 591 mmHg 22%
    18:00 +18°C° 0 mm 3 mps 591 mmHg 26%
    19:00 +17°C° 0 mm 2 mps 591 mmHg 29%
    20:00 +16°C° 0 mm 2 mps 590 mmHg 32%
    21:00 +15°C° 0 mm 2 mps 590 mmHg 35%
    22:00 +15°C° 0 mm 2 mps 590 mmHg 37%
    23:00 +14°C° 0 mm 1 mps 590 mmHg 39%

    29 October, Monday

    Time Temperature Precipitation Wind Pressure Humidity
    00:00 +13°C° 0 mm 1 mps 589 mmHg 41%
    01:00 +13°C° 0 mm 1 mps 589 mmHg 43%
    02:00 +12°C° 0 mm 1 mps 589 mmHg 44%
    03:00 +12°C° 0 mm 1 mps 588 mmHg 46%
    04:00 +12°C° 0 mm 1 mps 588 mmHg 47%
    05:00 +11°C° 0 mm 1 mps 588 mmHg 49%
    06:00 +12°C° 0 mm 1 mps 589 mmHg 47%
    07:00 +12°C° 0 mm 1 mps 589 mmHg 45%
    08:00 +13°C° 0 mm 1 mps 590 mmHg 43%
    09:00 +14°C° 0 mm 1 mps 590 mmHg 39%
    10:00 +15°C° 0 mm 1 mps 591 mmHg 36%
    11:00 +18°C° 0 mm 1 mps 591 mmHg 32%
    12:00 +17°C° 0 mm 2 mps 591 mmHg 30%
    13:00 +18°C° 0 mm 2 mps 591 mmHg 28%
    14:00 +19°C° 0 mm 3 mps 591 mmHg 26%
    15:00 +19°C° 0 mm 4 mps 591 mmHg 26%
    16:00 +19°C° 0 mm 4 mps 591 mmHg 26%
    17:00 +18°C° 0 mm 4 mps 590 mmHg 26%
    18:00 +17°C° 0 mm 4 mps 590 mmHg 30%
    19:00 +16°C° 0 mm 3 mps 590 mmHg 33%
    20:00 +14°C° 0 mm 3 mps 590 mmHg 36%
    21:00 +14°C° 0 mm 2 mps 590 mmHg 39%
    22:00 +13°C° 0 mm 2 mps 590 mmHg 42%
    23:00 +12°C° 0 mm 1 mps 589 mmHg 45%
    Show more